| time (UTC) | temp F | wind direction | speed MPH | gust MPH | rain 1hr in | rain 24hr in | rain mn in | humidity % | barometer mb |
| 20260506111536 | 63 | 135 | 1.0 | 4.0 | 0.00 | 0.00 | 0.00 | 79 | 1022.4 |
| 20260506111015 | 63 | 135 | 1.0 | 4.0 | 0.00 | 0.00 | 0.00 | 79 | 1022.5 |
| 20260506110515 | 63 | 135 | 1.0 | 7.0 | 0.00 | 0.00 | 0.00 | 79 | 1022.4 |
| 20260506110016 | 63 | 135 | 1.0 | 4.0 | 0.00 | 0.00 | 0.00 | 78 | 1022.5 |
| 20260506105515 | 63 | 135 | 1.0 | 4.0 | 0.00 | 0.00 | 0.00 | 78 | 1022.7 |
| 20260506105055 | 63 | 135 | 1.0 | 5.0 | 0.00 | 0.00 | 0.00 | 78 | 1022.6 |
| 20260506104536 | 63 | 135 | 1.0 | 4.0 | 0.00 | 0.00 | 0.00 | 78 | 1022.6 |
| 20260506104036 | 63 | 0.0 | 2.0 | 0.00 | 0.00 | 0.00 | 78 | 1022.7 | |
| 20260506103515 | 63 | 158 | 1.0 | 3.0 | 0.00 | 0.00 | 0.00 | 78 | 1022.7 |
| 20260506103015 | 63 | 113 | 1.0 | 8.0 | 0.00 | 0.00 | 0.00 | 78 | 1022.9 |
| 20260506102515 | 63 | 135 | 1.0 | 6.0 | 0.00 | 0.00 | 0.00 | 77 | 1022.8 |
| 20260506102015 | 63 | 0.0 | 3.0 | 0.00 | 0.00 | 0.00 | 78 | 1022.8 | |
| 20260506101536 | 63 | 0.0 | 2.0 | 0.00 | 0.00 | 0.00 | 78 | 1022.8 | |
| 20260506101015 | 63 | 0.0 | 2.0 | 0.00 | 0.00 | 0.00 | 78 | 1022.6 | |
| 20260506100515 | 63 | 113 | 1.0 | 5.0 | 0.00 | 0.00 | 0.00 | 78 | 1022.5 |
| 20260506100036 | 62 | 113 | 1.0 | 4.0 | 0.00 | 0.00 | 0.00 | 78 | 1022.5 |
| 20260506095516 | 62 | 0.0 | 1.0 | 0.00 | 0.00 | 0.00 | 78 | 1022.6 | |
| 20260506095016 | 63 | 0.0 | 3.0 | 0.00 | 0.00 | 0.00 | 77 | 1022.6 | |
| 20260506094515 | 63 | 113 | 1.0 | 4.0 | 0.00 | 0.00 | 0.00 | 77 | 1022.6 |
| 20260506094016 | 63 | 135 | 1.0 | 4.0 | 0.00 | 0.00 | 0.00 | 77 | 1022.6 |
| 20260506093516 | 63 | 135 | 2.0 | 5.0 | 0.00 | 0.00 | 0.00 | 77 | 1022.4 |
| 20260506093015 | 63 | 135 | 1.0 | 5.0 | 0.00 | 0.00 | 0.00 | 77 | 1022.5 |
| 20260506092515 | 63 | 135 | 1.0 | 6.0 | 0.00 | 0.00 | 0.00 | 77 | 1022.6 |
| 20260506092015 | 63 | 0.0 | 2.0 | 0.00 | 0.00 | 0.00 | 77 | 1022.5 | |
| 20260506091616 | 63 | 135 | 1.0 | 5.0 | 0.00 | 0.00 | 0.00 | 77 | 1022.6 |
| 20260506091015 | 63 | 158 | 1.0 | 4.0 | 0.00 | 0.00 | 0.00 | 78 | 1022.7 |
| 20260506090515 | 63 | 0.0 | 5.0 | 0.00 | 0.00 | 0.00 | 78 | 1022.7 | |
| 20260506090015 | 63 | 0.0 | 3.0 | 0.00 | 0.00 | 0.00 | 78 | 1022.7 | |
| 20260506085515 | 63 | 135 | 1.0 | 3.0 | 0.00 | 0.00 | 0.00 | 78 | 1022.8 |
| 20260506085015 | 63 | 0.0 | 1.0 | 0.00 | 0.00 | 0.00 | 78 | 1022.7 | |
| 20260506084515 | 63 | 113 | 1.0 | 4.0 | 0.00 | 0.00 | 0.00 | 78 | 1022.9 |
| 20260506084015 | 63 | 225 | 1.0 | 7.0 | 0.00 | 0.00 | 0.00 | 78 | 1022.8 |
| 20260506083515 | 63 | 0.0 | 5.0 | 0.00 | 0.00 | 0.00 | 78 | 1023.0 | |
| 20260506083016 | 63 | 113 | 1.0 | 4.0 | 0.00 | 0.00 | 0.00 | 79 | 1022.9 |
| 20260506082515 | 63 | 0.0 | 3.0 | 0.00 | 0.00 | 0.00 | 78 | 1023.0 | |
| 20260506082015 | 63 | 0.0 | 4.0 | 0.00 | 0.00 | 0.00 | 78 | 1023.0 | |
| 20260506081516 | 63 | 0.0 | 3.0 | 0.00 | 0.00 | 0.00 | 78 | 1023.0 | |
| 20260506081015 | 63 | 0.0 | 1.0 | 0.00 | 0.00 | 0.00 | 78 | 1023.1 | |
| 20260506080515 | 63 | 0.0 | 3.0 | 0.00 | 0.00 | 0.00 | 78 | 1023.1 | |
| 20260506073515 | 64 | 0.0 | 2.0 | 0.00 | 0.00 | 0.00 | 77 | 1023.2 | |
| 20260506073015 | 64 | 0.0 | 3.0 | 0.00 | 0.00 | 0.00 | 77 | 1023.3 | |
| 20260506072516 | 64 | 113 | 1.0 | 5.0 | 0.00 | 0.00 | 0.00 | 76 | 1023.2 |
| 20260506072035 | 64 | 135 | 1.0 | 9.0 | 0.00 | 0.00 | 0.00 | 76 | 1023.3 |
| 20260506071515 | 64 | 135 | 1.0 | 4.0 | 0.00 | 0.00 | 0.00 | 76 | 1023.3 |
| 20260506071016 | 64 | 113 | 1.0 | 7.0 | 0.00 | 0.00 | 0.00 | 75 | 1023.3 |
| 20260506070536 | 64 | 135 | 1.0 | 9.0 | 0.00 | 0.00 | 0.00 | 75 | 1023.2 |
| 20260506062515 | 65 | 135 | 1.0 | 4.0 | 0.00 | 0.00 | 0.00 | 74 | 1023.6 |
| 20260506062016 | 65 | 0.0 | 7.0 | 0.00 | 0.00 | 0.00 | 74 | 1023.6 | |
| 20260506061536 | 65 | 135 | 1.0 | 4.0 | 0.00 | 0.00 | 0.00 | 74 | 1023.6 |
| 20260506061016 | 65 | 135 | 1.0 | 4.0 | 0.00 | 0.00 | 0.00 | 74 | 1023.5 |
| 20260506060535 | 65 | 135 | 1.0 | 5.0 | 0.00 | 0.00 | 0.00 | 74 | 1023.5 |
| 20260506051015 | 67 | 135 | 1.0 | 7.0 | 0.00 | 0.00 | 0.00 | 71 | 1023.9 |
| 20260506050515 | 67 | 135 | 1.0 | 3.0 | 0.00 | 0.00 | 0.00 | 71 | 1023.9 |
| 20260506045015 | 67 | 113 | 1.0 | 4.0 | 0.00 | 0.00 | 0.00 | 70 | 1024.0 |
| 20260506044515 | 67 | 113 | 1.0 | 6.0 | 0.00 | 0.00 | 0.00 | 70 | 1024.0 |
| 20260506044035 | 68 | 135 | 1.0 | 7.0 | 0.00 | 0.00 | 0.00 | 69 | 1024.0 |
| 20260506043515 | 68 | 135 | 2.0 | 8.0 | 0.00 | 0.00 | 0.00 | 69 | 1024.1 |
| 20260506043015 | 67 | 135 | 1.0 | 5.0 | 0.00 | 0.00 | 0.00 | 69 | 1024.1 |
| 20260506042515 | 68 | 203 | 1.0 | 3.0 | 0.00 | 0.00 | 0.00 | 69 | 1024.1 |
| 20260506042015 | 68 | 135 | 1.0 | 7.0 | 0.00 | 0.00 | 0.00 | 69 | 1024.1 |
| 20260506041515 | 68 | 113 | 1.0 | 3.0 | 0.00 | 0.00 | 0.00 | 68 | 1024.1 |
| 20260506041015 | 68 | 135 | 2.0 | 9.0 | 0.00 | 0.00 | 0.00 | 68 | 1024.0 |
| 20260506040515 | 68 | 135 | 2.0 | 10.0 | 0.00 | 0.00 | 0.00 | 68 | 1023.9 |
| 20260506040016 | 68 | 135 | 1.0 | 4.0 | 0.00 | 0.00 | 0.00 | 67 | 1024.0 |
| 20260506035516 | 68 | 135 | 2.0 | 7.0 | 0.00 | 0.00 | 0.00 | 66 | 1024.1 |
| 20260506035016 | 68 | 135 | 1.0 | 4.0 | 0.00 | 0.00 | 0.00 | 66 | 1024.1 |
| 20260506034516 | 68 | 135 | 1.0 | 3.0 | 0.00 | 0.00 | 0.00 | 65 | 1024.1 |
| 20260506034016 | 69 | 135 | 2.0 | 7.0 | 0.00 | 0.00 | 0.00 | 64 | 1024.1 |
| 20260506033516 | 69 | 113 | 1.0 | 2.0 | 0.00 | 0.00 | 0.00 | 64 | 1024.0 |
| 20260506033016 | 69 | 135 | 1.0 | 4.0 | 0.00 | 0.00 | 0.00 | 63 | 1024.0 |
| 20260506032536 | 69 | 135 | 1.0 | 3.0 | 0.00 | 0.00 | 0.00 | 62 | 1024.0 |
| 20260506032016 | 69 | 135 | 1.0 | 4.0 | 0.00 | 0.00 | 0.00 | 62 | 1024.1 |
| 20260506031516 | 69 | 135 | 1.0 | 6.0 | 0.00 | 0.00 | 0.00 | 61 | 1024.0 |
| 20260506031016 | 69 | 135 | 1.0 | 4.0 | 0.00 | 0.00 | 0.00 | 61 | 1023.9 |
| 20260506030516 | 70 | 135 | 1.0 | 5.0 | 0.00 | 0.00 | 0.00 | 60 | 1024.0 |
| 20260506030056 | 70 | 0.0 | 1.0 | 0.00 | 0.00 | 0.00 | 60 | 1024.0 | |
| 20260506025516 | 70 | 135 | 2.0 | 5.0 | 0.00 | 0.00 | 0.00 | 60 | 1024.0 |
| 20260506025016 | 70 | 135 | 1.0 | 4.0 | 0.00 | 0.00 | 0.00 | 60 | 1023.9 |
| 20260506024516 | 70 | 113 | 1.0 | 2.0 | 0.00 | 0.00 | 0.00 | 60 | 1023.9 |
| 20260506024016 | 70 | 135 | 1.0 | 2.0 | 0.00 | 0.00 | 0.00 | 59 | 1023.9 |
| 20260506023516 | 70 | 135 | 1.0 | 4.0 | 0.00 | 0.00 | 0.00 | 59 | 1023.9 |
| 20260506023016 | 70 | 135 | 1.0 | 3.0 | 0.00 | 0.00 | 0.00 | 59 | 1023.9 |
| 20260506022516 | 70 | 135 | 1.0 | 5.0 | 0.00 | 0.00 | 0.00 | 58 | 1023.9 |
| 20260506022016 | 70 | 113 | 1.0 | 5.0 | 0.00 | 0.00 | 0.00 | 58 | 1023.9 |
| 20260506021516 | 70 | 0.0 | 5.0 | 0.00 | 0.00 | 0.00 | 58 | 1023.9 | |
| 20260506021016 | 70 | 135 | 1.0 | 3.0 | 0.00 | 0.00 | 0.00 | 58 | 1023.8 |
| 20260506020516 | 71 | 135 | 1.0 | 5.0 | 0.00 | 0.00 | 0.00 | 58 | 1023.9 |
| 20260506020036 | 71 | 135 | 1.0 | 5.0 | 0.00 | 0.00 | 0.00 | 58 | 1023.8 |
| 20260506015516 | 71 | 0.0 | 2.0 | 0.00 | 0.00 | 0.00 | 57 | 1023.8 | |
| 20260506015016 | 71 | 135 | 1.0 | 5.0 | 0.00 | 0.00 | 0.00 | 57 | 1023.7 |
| 20260506014516 | 71 | 135 | 1.0 | 4.0 | 0.00 | 0.00 | 0.00 | 56 | 1023.6 |
| 20260506014016 | 71 | 113 | 1.0 | 2.0 | 0.00 | 0.00 | 0.00 | 56 | 1023.6 |
| 20260506013516 | 71 | 0.0 | 1.0 | 0.00 | 0.00 | 0.00 | 56 | 1023.5 | |
| 20260506013016 | 72 | 0.0 | 2.0 | 0.00 | 0.00 | 0.00 | 55 | 1023.5 | |
| 20260506012516 | 72 | 135 | 1.0 | 3.0 | 0.00 | 0.00 | 0.00 | 55 | 1023.4 |
| 20260506012016 | 72 | 135 | 1.0 | 6.0 | 0.00 | 0.00 | 0.00 | 54 | 1023.3 |
| 20260506011536 | 72 | 135 | 1.0 | 7.0 | 0.00 | 0.00 | 0.00 | 54 | 1023.2 |
| 20260506011036 | 72 | 0.0 | 2.0 | 0.00 | 0.00 | 0.00 | 54 | 1023.2 | |
| 20260506010516 | 72 | 135 | 1.0 | 3.0 | 0.00 | 0.00 | 0.00 | 53 | 1023.2 |
| 20260506010016 | 73 | 0.0 | 3.0 | 0.00 | 0.00 | 0.00 | 53 | 1023.2 | |
| 20260506005516 | 73 | 113 | 1.0 | 4.0 | 0.00 | 0.00 | 0.00 | 52 | 1023.1 |
| 20260506005016 | 73 | 135 | 1.0 | 5.0 | 0.00 | 0.00 | 0.00 | 52 | 1023.1 |
| 20260506004516 | 73 | 135 | 1.0 | 3.0 | 0.00 | 0.00 | 0.00 | 52 | 1022.9 |
| 20260506004016 | 73 | 135 | 1.0 | 5.0 | 0.00 | 0.00 | 0.00 | 51 | 1022.9 |
| 20260506003516 | 73 | 0.0 | 2.0 | 0.00 | 0.00 | 0.00 | 51 | 1022.8 | |
| 20260506003016 | 74 | 135 | 2.0 | 5.0 | 0.00 | 0.00 | 0.00 | 51 | 1022.8 |
| 20260506002556 | 74 | 135 | 1.0 | 4.0 | 0.00 | 0.00 | 0.00 | 51 | 1022.7 |
| 20260506002016 | 74 | 135 | 1.0 | 3.0 | 0.00 | 0.00 | 0.00 | 51 | 1022.8 |
| 20260506001516 | 74 | 135 | 1.0 | 5.0 | 0.00 | 0.00 | 0.00 | 50 | 1022.7 |
| 20260506001016 | 74 | 135 | 1.0 | 4.0 | 0.00 | 0.00 | 0.00 | 50 | 1022.7 |
| 20260506000536 | 75 | 135 | 1.0 | 6.0 | 0.00 | 0.00 | 0.00 | 49 | 1022.6 |
| 20260506000016 | 75 | 135 | 1.0 | 5.0 | 0.00 | 0.00 | 0.00 | 49 | 1022.5 |
| 20260505235536 | 75 | 158 | 1.0 | 5.0 | 0.00 | 0.00 | 0.00 | 49 | 1022.5 |
| 20260505235036 | 75 | 113 | 1.0 | 3.0 | 0.00 | 0.00 | 0.00 | 49 | 1022.7 |
| 20260505234516 | 75 | 135 | 1.0 | 6.0 | 0.00 | 0.00 | 0.00 | 49 | 1022.6 |
| 20260505234036 | 76 | 135 | 1.0 | 5.0 | 0.00 | 0.00 | 0.00 | 48 | 1022.4 |
| 20260505233516 | 76 | 113 | 1.0 | 5.0 | 0.00 | 0.00 | 0.00 | 48 | 1022.4 |
| 20260505233016 | 76 | 113 | 2.0 | 6.0 | 0.00 | 0.00 | 0.00 | 48 | 1022.3 |
| 20260505232516 | 76 | 158 | 1.0 | 4.0 | 0.00 | 0.00 | 0.00 | 48 | 1022.4 |
| 20260505232016 | 76 | 135 | 1.0 | 7.0 | 0.00 | 0.00 | 0.00 | 47 | 1022.5 |
| 20260505231516 | 76 | 90 | 1.0 | 5.0 | 0.00 | 0.00 | 0.00 | 48 | 1022.6 |
| 20260505231016 | 76 | 113 | 1.0 | 5.0 | 0.00 | 0.00 | 0.00 | 46 | 1022.4 |
| 20260505230516 | 76 | 135 | 1.0 | 5.0 | 0.00 | 0.00 | 0.00 | 46 | 1022.4 |
| 20260505230016 | 77 | 113 | 1.0 | 5.0 | 0.00 | 0.00 | 0.00 | 46 | 1022.3 |
| 20260505225516 | 77 | 113 | 1.0 | 8.0 | 0.00 | 0.00 | 0.00 | 46 | 1022.4 |
| 20260505225036 | 77 | 113 | 1.0 | 8.0 | 0.00 | 0.00 | 0.00 | 45 | 1022.3 |
| 20260505224536 | 77 | 135 | 1.0 | 7.0 | 0.00 | 0.00 | 0.00 | 45 | 1022.4 |
| 20260505224016 | 77 | 113 | 1.0 | 7.0 | 0.00 | 0.00 | 0.00 | 44 | 1022.4 |
| 20260505223536 | 77 | 135 | 2.0 | 7.0 | 0.00 | 0.00 | 0.00 | 44 | 1022.2 |
| 20260505223016 | 78 | 113 | 2.0 | 9.0 | 0.00 | 0.00 | 0.00 | 44 | 1022.6 |
| 20260505222516 | 78 | 158 | 1.0 | 7.0 | 0.00 | 0.00 | 0.00 | 44 | 1022.5 |
| 20260505222016 | 78 | 113 | 2.0 | 7.0 | 0.00 | 0.00 | 0.00 | 43 | 1022.4 |
| 20260505221516 | 78 | 135 | 2.0 | 8.0 | 0.00 | 0.00 | 0.00 | 43 | 1022.3 |
| 20260505221016 | 78 | 338 | 1.0 | 8.0 | 0.00 | 0.00 | 0.00 | 42 | 1022.3 |
| 20260505220516 | 79 | 135 | 2.0 | 7.0 | 0.00 | 0.00 | 0.00 | 42 | 1022.2 |
| 20260505220016 | 79 | 135 | 1.0 | 3.0 | 0.00 | 0.00 | 0.00 | 43 | 1022.3 |
| 20260505215516 | 79 | 135 | 1.0 | 8.0 | 0.00 | 0.00 | 0.00 | 42 | 1022.3 |
| 20260505215016 | 79 | 135 | 3.0 | 13.0 | 0.00 | 0.00 | 0.00 | 42 | 1022.2 |
| 20260505214516 | 79 | 113 | 1.0 | 6.0 | 0.00 | 0.00 | 0.00 | 41 | 1022.2 |
| 20260505214016 | 79 | 135 | 3.0 | 7.0 | 0.00 | 0.00 | 0.00 | 41 | 1022.2 |
| 20260505213516 | 79 | 135 | 2.0 | 13.0 | 0.00 | 0.00 | 0.00 | 41 | 1022.2 |
| 20260505213016 | 79 | 135 | 3.0 | 12.0 | 0.00 | 0.00 | 0.00 | 41 | 1022.2 |
| 20260505212516 | 79 | 0.0 | 2.0 | 0.00 | 0.00 | 0.00 | 42 | 1022.2 | |
| 20260505212016 | 79 | 203 | 1.0 | 7.0 | 0.00 | 0.00 | 0.00 | 39 | 1022.5 |
| 20260505211516 | 79 | 0.0 | 3.0 | 0.00 | 0.00 | 0.00 | 39 | 1022.5 | |
| 20260505211016 | 79 | 113 | 1.0 | 3.0 | 0.00 | 0.00 | 0.00 | 39 | 1022.4 |
| 20260505210516 | 79 | 0.0 | 4.0 | 0.00 | 0.00 | 0.00 | 39 | 1022.4 | |
| 20260505210016 | 80 | 113 | 1.0 | 6.0 | 0.00 | 0.00 | 0.00 | 37 | 1022.5 |
| 20260505205556 | 80 | 0 | 1.0 | 6.0 | 0.00 | 0.00 | 0.00 | 37 | 1022.5 |
| 20260505205016 | 80 | 293 | 1.0 | 4.0 | 0.00 | 0.00 | 0.00 | 36 | 1022.3 |
| 20260505204516 | 80 | 113 | 1.0 | 6.0 | 0.00 | 0.00 | 0.00 | 37 | 1022.3 |
| 20260505204016 | 80 | 90 | 1.0 | 9.0 | 0.00 | 0.00 | 0.00 | 36 | 1022.4 |
| 20260505203536 | 81 | 135 | 1.0 | 5.0 | 0.00 | 0.00 | 0.00 | 35 | 1022.3 |
| 20260505203016 | 81 | 113 | 1.0 | 4.0 | 0.00 | 0.00 | 0.00 | 37 | 1022.2 |
| 20260505202536 | 81 | 0.0 | 2.0 | 0.00 | 0.00 | 0.00 | 37 | 1022.4 | |
| 20260505202016 | 81 | 0 | 1.0 | 4.0 | 0.00 | 0.00 | 0.00 | 34 | 1022.4 |
| 20260505201516 | 81 | 315 | 1.0 | 6.0 | 0.00 | 0.00 | 0.00 | 36 | 1022.5 |
| 20260505201016 | 81 | 338 | 1.0 | 4.0 | 0.00 | 0.00 | 0.00 | 35 | 1022.5 |
| 20260505200516 | 81 | 113 | 2.0 | 5.0 | 0.00 | 0.00 | 0.00 | 32 | 1022.5 |
| 20260505200016 | 81 | 135 | 1.0 | 7.0 | 0.00 | 0.00 | 0.00 | 33 | 1022.6 |
| 20260505195516 | 81 | 0 | 1.0 | 4.0 | 0.00 | 0.00 | 0.00 | 35 | 1022.8 |
| 20260505195016 | 81 | 0 | 2.0 | 6.0 | 0.00 | 0.00 | 0.00 | 33 | 1022.7 |
| 20260505194516 | 81 | 293 | 2.0 | 9.0 | 0.00 | 0.00 | 0.00 | 33 | 1022.7 |
| 20260505194016 | 82 | 293 | 2.0 | 8.0 | 0.00 | 0.00 | 0.00 | 33 | 1022.9 |
| 20260505193516 | 82 | 0 | 1.0 | 7.0 | 0.00 | 0.00 | 0.00 | 33 | 1022.9 |
| 20260505193016 | 82 | 338 | 2.0 | 8.0 | 0.00 | 0.00 | 0.00 | 32 | 1023.0 |
| 20260505192536 | 82 | 158 | 2.0 | 9.0 | 0.00 | 0.00 | 0.00 | 31 | 1023.0 |
| 20260505192036 | 82 | 113 | 1.0 | 5.0 | 0.00 | 0.00 | 0.00 | 33 | 1023.1 |
| 20260505191516 | 82 | 113 | 1.0 | 6.0 | 0.00 | 0.00 | 0.00 | 34 | 1023.2 |
| 20260505191036 | 82 | 135 | 1.0 | 2.0 | 0.00 | 0.00 | 0.00 | 34 | 1023.2 |
| 20260505190516 | 82 | 135 | 1.0 | 8.0 | 0.00 | 0.00 | 0.00 | 34 | 1023.2 |
| 20260505190036 | 82 | 135 | 2.0 | 5.0 | 0.00 | 0.00 | 0.00 | 35 | 1023.5 |
| 20260505185516 | 82 | 135 | 2.0 | 8.0 | 0.00 | 0.00 | 0.00 | 34 | 1023.6 |
| 20260505185016 | 82 | 113 | 2.0 | 8.0 | 0.00 | 0.00 | 0.00 | 36 | 1023.5 |
| 20260505184516 | 82 | 135 | 3.0 | 10.0 | 0.00 | 0.00 | 0.00 | 33 | 1023.6 |
| 20260505184036 | 81 | 135 | 3.0 | 9.0 | 0.00 | 0.00 | 0.00 | 34 | 1023.7 |
| 20260505183516 | 81 | 135 | 2.0 | 13.0 | 0.00 | 0.00 | 0.00 | 34 | 1023.6 |
| 20260505183016 | 81 | 315 | 2.0 | 13.0 | 0.00 | 0.00 | 0.00 | 35 | 1023.7 |
| 20260505182536 | 81 | 248 | 1.0 | 11.0 | 0.00 | 0.00 | 0.00 | 37 | 1023.8 |
| 20260505182036 | 81 | 135 | 3.0 | 10.0 | 0.00 | 0.00 | 0.00 | 34 | 1023.8 |
| 20260505181516 | 81 | 338 | 1.0 | 8.0 | 0.00 | 0.00 | 0.00 | 34 | 1023.8 |
| 20260505181016 | 82 | 270 | 1.0 | 11.0 | 0.00 | 0.00 | 0.00 | 36 | 1023.8 |
| 20260505180536 | 82 | 113 | 1.0 | 6.0 | 0.00 | 0.00 | 0.00 | 35 | 1024.1 |
| 20260505180016 | 82 | 113 | 2.0 | 7.0 | 0.00 | 0.00 | 0.00 | 34 | 1024.0 |
| 20260505175516 | 82 | 315 | 2.0 | 8.0 | 0.00 | 0.00 | 0.00 | 35 | 1024.2 |
| 20260505175016 | 82 | 113 | 2.0 | 10.0 | 0.00 | 0.00 | 0.00 | 35 | 1024.2 |
| 20260505174516 | 81 | 248 | 1.0 | 3.0 | 0.00 | 0.00 | 0.00 | 33 | 1024.2 |
| 20260505174016 | 81 | 270 | 1.0 | 6.0 | 0.00 | 0.00 | 0.00 | 34 | 1024.2 |
| 20260505173516 | 81 | 293 | 1.0 | 7.0 | 0.00 | 0.00 | 0.00 | 35 | 1024.3 |
| 20260505173016 | 81 | 293 | 2.0 | 10.0 | 0.00 | 0.00 | 0.00 | 33 | 1024.3 |
| 20260505172516 | 81 | 135 | 2.0 | 9.0 | 0.00 | 0.00 | 0.00 | 40 | 1024.4 |
| 20260505172016 | 80 | 0.0 | 2.0 | 0.00 | 0.00 | 0.00 | 37 | 1024.3 | |
| 20260505171516 | 81 | 315 | 1.0 | 11.0 | 0.00 | 0.00 | 0.00 | 35 | 1024.5 |
| 20260505171016 | 81 | 135 | 2.0 | 8.0 | 0.00 | 0.00 | 0.00 | 37 | 1024.6 |
| 20260505170516 | 81 | 135 | 2.0 | 10.0 | 0.00 | 0.00 | 0.00 | 38 | 1024.8 |
| 20260505170016 | 81 | 338 | 1.0 | 9.0 | 0.00 | 0.00 | 0.00 | 38 | 1024.7 |
| 20260505165516 | 81 | 135 | 1.0 | 9.0 | 0.00 | 0.00 | 0.00 | 40 | 1024.7 |
| 20260505165016 | 81 | 113 | 1.0 | 7.0 | 0.00 | 0.00 | 0.00 | 44 | 1024.8 |
| 20260505164516 | 80 | 293 | 1.0 | 3.0 | 0.00 | 0.00 | 0.00 | 43 | 1024.8 |
| 20260505164016 | 81 | 135 | 1.0 | 3.0 | 0.00 | 0.00 | 0.00 | 40 | 1024.9 |
| 20260505163516 | 80 | 135 | 3.0 | 6.0 | 0.00 | 0.00 | 0.00 | 46 | 1024.9 |
| 20260505163016 | 80 | 135 | 1.0 | 6.0 | 0.00 | 0.00 | 0.00 | 42 | 1025.1 |
| 20260505162536 | 80 | 293 | 1.0 | 5.0 | 0.00 | 0.00 | 0.00 | 47 | 1025.1 |
| 20260505162015 | 80 | 270 | 1.0 | 3.0 | 0.00 | 0.00 | 0.00 | 48 | 1025.2 |
| 20260505161536 | 80 | 135 | 1.0 | 4.0 | 0.00 | 0.00 | 0.00 | 46 | 1025.4 |
| 20260505161036 | 80 | 113 | 2.0 | 5.0 | 0.00 | 0.00 | 0.00 | 45 | 1025.4 |
| 20260505160516 | 80 | 135 | 2.0 | 5.0 | 0.00 | 0.00 | 0.00 | 46 | 1025.4 |
| 20260505153016 | 78 | 0.0 | 1.0 | 0.00 | 0.00 | 0.00 | 48 | 1025.8 | |
| 20260505152516 | 78 | 0.0 | 2.0 | 0.00 | 0.00 | 0.00 | 48 | 1025.8 | |
| 20260505152015 | 77 | 113 | 1.0 | 7.0 | 0.00 | 0.00 | 0.00 | 48 | 1025.8 |
| 20260505151516 | 77 | 0.0 | 2.0 | 0.00 | 0.00 | 0.00 | 50 | 1025.8 | |
| 20260505151016 | 76 | 315 | 1.0 | 3.0 | 0.00 | 0.00 | 0.00 | 53 | 1025.6 |
| 20260505150516 | 76 | 293 | 1.0 | 2.0 | 0.00 | 0.00 | 0.00 | 51 | 1025.6 |
| 20260505140516 | 72 | 0.0 | 2.0 | 0.00 | 0.00 | 0.00 | 55 | 1025.4 | |
| 20260505125016 | 65 | 0.0 | 4.0 | 0.00 | 0.00 | 0.00 | 72 | 1025.5 | |
| 20260505124516 | 64 | 0.0 | 1.0 | 0.00 | 0.00 | 0.00 | 73 | 1025.5 | |
| 20260505124016 | 63 | 0.0 | 2.0 | 0.00 | 0.00 | 0.00 | 74 | 1025.5 | |
| 20260505123516 | 62 | 0.0 | 1.0 | 0.00 | 0.00 | 0.00 | 75 | 1025.6 | |
| 20260505123016 | 62 | 0.0 | 1.0 | 0.00 | 0.00 | 0.00 | 76 | 1025.5 | |
| 20260505122516 | 61 | 0.0 | 1.0 | 0.00 | 0.00 | 0.00 | 77 | 1025.5 | |
| 20260505122016 | 61 | 0.0 | 0.0 | 0.00 | 0.00 | 0.00 | 77 | 1025.3 | |
| 20260505121516 | 60 | 0.0 | 1.0 | 0.00 | 0.00 | 0.00 | 78 | 1025.4 | |
| 20260505121015 | 60 | 0.0 | 1.0 | 0.00 | 0.00 | 0.00 | 78 | 1025.3 | |
| 20260505120515 | 60 | 0.0 | 1.0 | 0.00 | 0.00 | 0.00 | 79 | 1025.2 | |
| 20260505120015 | 59 | 0.0 | 1.0 | 0.00 | 0.00 | 0.00 | 79 | 1025.2 | |
| 20260505115516 | 59 | 0.0 | 1.0 | 0.00 | 0.00 | 0.00 | 79 | 1025.2 | |
| 20260505115036 | 58 | 0.0 | 1.0 | 0.00 | 0.00 | 0.00 | 80 | 1025.1 | |
| 20260505114536 | 58 | 0.0 | 1.0 | 0.00 | 0.00 | 0.00 | 81 | 1025.1 | |
| 20260505114036 | 57 | 0.0 | 1.0 | 0.00 | 0.00 | 0.00 | 82 | 1025.1 | |
| 20260505113515 | 57 | 0.0 | 1.0 | 0.00 | 0.00 | 0.00 | 83 | 1025.1 | |
| 20260505113017 | 57 | 0.0 | 3.0 | 0.00 | 0.00 | 0.00 | 83 | 1025.0 | |
| 20260505112516 | 56 | 0.0 | 1.0 | 0.00 | 0.00 | 0.00 | 84 | 1025.0 | |
| 20260505112016 | 56 | 0.0 | 1.0 | 0.00 | 0.00 | 0.00 | 85 | 1024.9 |